Regional Weather Roundup
Issued by NWS

Home | Current Version | Previous Version | Graphics & Text | Print | Product List | Glossary Off
Versions: 1 2 3 4 5 6 7 8 9 10 11 12 13 14 15 16 17 18 19 20 21 22 23 24 25 26 27 28 29 30 31 32 33 34 35 36 37 38 39 40 41 42 43 44 45 46 47 48 49 50

000
ASUS43 KMKX 262010
RWRWI

WISCONSIN REGIONAL WEATHER ROUNDUP
NATIONAL WEATHER SERVICE MILWAUKEE/SULLIVAN WI
300 PM CDT THU MAR 26 2015

NOTE: "FAIR" INDICATES FEW OR NO CLOUDS BELOW 12,000 FEET WITH NO
SIGNIFICANT WEATHER AND/OR OBSTRUCTIONS TO VISIBILITY.

WIZ001-002-006>008-014>016-023>028-262100-
NORTHWEST WISCONSIN

CITY           SKY/WX    TMP DP  RH WIND       PRES   REMARKS
SUPERIOR ARPT  SUNNY     32   8  36 N10G17    30.12F WCI  23
ASHLAND        CLOUDY    28  12  51 NE14      30.12S WCI  17
HAYWARD        CLOUDY    28  10  46 N10       30.07S WCI  19
SIREN          MOSUNNY   32   5  32 N15G22    30.08S WCI  22
CUMBERLAND     CLOUDY    30  12  47 N7G16     30.05F WCI  23
RICE LAKE      CLOUDY    31  13  46 N10       30.08F WCI  23
CHETEK         CLOUDY    31  15  50 NW8G18    30.06F WCI  24
LADYSMITH      CLOUDY    30  15  53 N9        30.06F WCI  21
EAU CLAIRE     CLOUDY    33  14  45 NW12G21   30.06S WCI  24
MENOMONIE      CLOUDY    33  15  48 N12       30.07F WCI  24
NEW RICHMOND   CLOUDY    33  16  49 NW14      30.09F WCI  23
OSCEOLA        PTSUNNY   35  16  47 NW13      30.12F WCI  26
$$

WIZ003>005-009-010-017-018-262100-
NORTH CENTRAL WISCONSIN

CITY           SKY/WX    TMP DP  RH WIND       PRES   REMARKS
MANITOWISH WTR FLURRIES  21  12  68 N9G17     30.01S WCI  11
ARBOR VITAE    FLURRIES  23  12  63 N13G23    30.00S WCI  11
WOODRUFF       FLURRIES  23  12  63 N13G23    30.00S WCI  11
RHINELANDER    CLOUDY    23  10  57 N9G20     29.98S WCI  13
EAGLE RIVER    FLURRIES  22  10  60 N17       29.98S WCI   8
LAND O LAKES   LGT SNOW  21  12  69 N13G21    30.00S WCI   8
PHILLIPS       CLOUDY    24  11  59 N13       30.02S WCI  12
TOMAHAWK       CLOUDY    26  12  57 N10G17    30.01R WCI  15
MEDFORD        CLOUDY    27  14  59 N13       30.00S WCI  16
MERRILL        CLOUDY    28  14  55 N14G20    29.99S WCI  17
$$

WIZ029-030-035-036-043>047-262100-
CENTRAL WISCONSIN

CITY           SKY/WX    TMP DP  RH WIND       PRES   REMARKS
WAUSAU         CLOUDY    29  14  53 N13G22    29.97S WCI  19
MOSINEE        CLOUDY    28  16  59 NW12G23   29.99F WCI  18
MARSHFIELD     CLOUDY    31  16  54 NW17      30.00F WCI  19
STEVENS POINT  CLOUDY    28  14  55 NW12G17   30.00S WCI  18
WAUPACA        CLOUDY    33  17  51 NW15      29.99S WCI  23
WAUTOMA        PTSUNNY   32  17  54 NW17G23   30.00S WCI  21
WISC RAPIDS    CLOUDY    31  15  52 N17G24    30.02S WCI  19
CAMP DOUGLAS   CLOUDY    36  19  51 NW15      30.00F WCI  26
$$

WIZ011>013-019>022-031-037>040-048>050-262100-
NORTHEAST WISCONSIN

CITY           SKY/WX    TMP DP  RH WIND       PRES   REMARKS
ANTIGO         CLOUDY    26  14  61 NW12      29.96R WCI  15
SHAWANO        CLOUDY    33  18  53 NW12G17   29.97R WCI  24
OCONTO         CLOUDY    32  19  59 NW10      29.95S WCI  23
STURGEON BAY   CLOUDY    30  18  59 N20       29.96S WCI  18
GREEN BAY      CLOUDY    34  20  56 NW14      29.96R WCI  25
MANITOWOC      LGT RAIN  33  22  63 NW15      29.95R WCI  23
APPLETON       CLOUDY    30  18  59 NW17G23   29.96F WCI  18
CLINTONVILLE   CLOUDY    32  16  51 NW8       29.97S WCI  25
OSHKOSH        CLOUDY    32  19  58 NW13G22   29.96R WCI  22
$$

WIZ032>034-041-042-053>061-262100-
SOUTHWEST WISCONSIN

CITY           SKY/WX    TMP DP  RH WIND       PRES   REMARKS
LA CROSSE      CLOUDY    37  21  52 NW13      30.05F WCI  29
SPARTA         CLOUDY    34  19  53 NW13G18   30.03F WCI  25
VIROQUA        CLOUDY    32  22  66 NW16      30.02S WCI  21
BOSCOBEL       CLOUDY    35  21  56 NW9G18    30.04F WCI  28
PRAIRIE DU CHI CLOUDY    34  20  58 NW13      30.06S WCI  25
PLATTEVILLE    CLOUDY    36  24  61 W12       30.01R WCI  28
$$

WIZ056-057-062-063-064-067-068-262100-
SOUTH CENTRAL WISCONSIN

CITY           SKY/WX    TMP DP  RH WIND       PRES   REMARKS
REEDSBURG      CLOUDY    36  18  48 NW9G17    29.99S WCI  29
BARABOO/DELLS  CLOUDY    35  19  52 NW10      29.98F WCI  27
LONE ROCK      CLOUDY    37  19  48 NW15G23   30.01F WCI  28
MINERAL POINT  CLOUDY    36  21  55 NW14G23   29.99S WCI  27
MADISON        CLOUDY    36  19  50 NW12G20   29.98F WCI  28
MIDDLETON      CLOUDY    36  21  53 NW14G21   29.99S WCI  27
WATERTOWN      CLOUDY    35  21  58 NW13G18   29.97R WCI  26
MONROE         CLOUDY    36  23  60 NW12      29.98S WCI  27
JANESVILLE     CLOUDY    39  23  52 NW15G21   29.97S WCI  31
$$

WIZ051-052-058>065-066-070>072-262100-
SOUTHEAST WISCONSIN

CITY           SKY/WX    TMP DP  RH WIND       PRES   REMARKS
MILWAUKEE      CLOUDY    36  21  54 NW15      29.96R WCI  27
WAUKESHA       CLOUDY    34  19  55 NW15      29.97R WCI  24
MILWAUKEE/TIMM CLOUDY    36  19  51 W17       29.96S WCI  25
RACINE         CLOUDY    37  20  50 NW10      29.96S WCI  30
BURLINGTON     CLOUDY    35  21  57 NW13      29.96S WCI  26
KENOSHA        CLOUDY    38  23  55 NW13G18   29.95S WCI  30
FOND DU LAC    CLOUDY    33  19  56 NW15      29.96S WCI  23
SHEBOYGAN      CLOUDY    34  21  59 NW12      29.94S WCI  25
WEST BEND      CLOUDY    32  21  64 W14       29.95S WCI  22
JUNEAU         CLOUDY    32  21  64 NW14G21   29.98R WCI  22
$$

LSZ147-162-262100-
LAKE SUPERIOR

STATION/POSITION TIME  TEMP    WIND        PRES    WAVE
                       AIR SEA DIR/SP/G            HT/PER
                 (UTC) (F)     (DEG/KT/KT) (MB)    (FT/S)
DEVILS ISLAND    2000   24     350/ 11/ 13 1021.5F
PORT WING        1940   27      30/  3/  4 1020.7F
$$

LMZ867-665-643>646-262100-
LAKE MICHIGAN

STATION/POSITION TIME  TEMP    WIND        PRES    WAVE
                       AIR SEA DIR/SP/G            HT/PER
                 (UTC) (F)     (DEG/KT/KT) (MB)    (FT/S)
NORTHPORT PIER   1905   27     350/ 17/ 23 1013.9F
SISTER BAY       1917   31     350/ 22/ 26   N/A
KEWAUNEE LAKESHO 1900   34     330/  7/ 13 1013.0S
SHEBOYGAN LAKESH 2000   34     320/ 10/ 13 1015.1R
PORT WASHINGTON  1940   36     330/  8/ 17 1014.9S
MILWAUKEE LAKESH 1900   36     300/ 10/ 13   N/A
KENOSHA   LAKESH 2000   37     330/ 15/ 18 1014.2S
$$

TC  - TEMPERATURE IN CELSIUS
VSB - VISIBILITY IN STATUTE MILES
WCI - WIND CHILL INDEX
HX  - HEAT INDEX




USA.gov is the U.S. government's official web portal to all federal, state and local government web resources and services.